x

Muskoka, Ont. (71630) Weather Station

1:00am - Wed 26th Nov 2014 All times are CST. -6 hours from GMT.

  • Wind
    2mph
  • Air Temp 28°f
  • Sea Pressure 1021.7mb
  • Muskoka, Ont.
  • Muskoka, Ont.

More Historic Weather Station data

Upgrade to MSW Pro to gain access to the past 30 days of data for over 8000 Wavebouys and Weather Stations around the globe.

Join Pro

Comparision Forecast

View Surf forecast
   
Wed 11/26 1:00am 2
mph
1021.7mb 28f
12:00am 2
mph
1020.7mb 28f
Tue 11/25 11:17pm 6
mph
1020.7mb 28f
11:06pm 9
mph
1020.7mb 30f
11:00pm 8
mph
1020.7mb 30f
10:00pm 8
mph
1019.6mb 30f
9:00pm 9
mph
1018mb 30f
8:17pm 6
mph
1018mb 30f
8:00pm 5
mph
1017.6mb 28f
7:35pm 8
mph
1016.9mb 28f
7:31pm 9
mph
1016.9mb 28f
7:15pm 9 17 mph 1016.6mb 28f
7:03pm 13 21 mph 1016.6mb 30f
7:00pm 9 21 mph 1016.3mb 30f
6:52pm 12 20 mph 1016.3mb 30f
6:25pm 13
mph
1014.9mb 30f
6:14pm 12 20 mph 1014.9mb 30f
6:13pm 14 20 mph 1014.6mb 30f
6:00pm 10 21 mph 1014.9mb 30f
5:27pm 12 21 mph 1014.2mb 32f
5:15pm 9
mph
1013.9mb 30f
5:00pm 8 17 mph 1013.5mb 30f
4:51pm 12 22 mph 1013.5mb 30f
4:35pm 10 18 mph 1013.2mb 30f
4:33pm 12 18 mph 1013.2mb 30f
4:22pm 9 21 mph 1012.9mb 30f
4:12pm 15 23 mph 1012.5mb 30f
4:09pm 14 23 mph 1012.5mb 30f
4:08pm 16 23 mph 1012.5mb 30f
4:06pm 16 23 mph 1012.2mb 30f
4:00pm 14 25 mph 1012.2mb 30f
3:58pm 9 25 mph 1012.5mb 30f
3:53pm 15 25 mph 1012.2mb 30f
3:50pm 10 20 mph 1012.2mb 30f
3:46pm 14 20 mph 1012.2mb 30f
3:30pm 16 25 mph 1011.9mb 30f
3:26pm 13 25 mph 1011.9mb 30f
3:22pm 13 28 mph 1011.9mb 30f
3:17pm 14 28 mph 1011.9mb 32f
3:14pm 21 28 mph 1011.5mb 32f
3:12pm 13 21 mph 1011.5mb 32f
3:00pm 16 28 mph 1010.8mb 32f
2:51pm 16 22 mph 1010.8mb 32f
2:47pm 16
mph
1010.5mb 32f
2:39pm 12 24 mph 1010.5mb 32f
2:34pm 14 24 mph 1010.5mb 32f
2:28pm 14 23 mph 1010.5mb 32f
2:26pm 14 23 mph 1010.5mb 32f
2:17pm 16 25 mph 1010.2mb 32f
2:00pm 15 31 mph 1009.8mb 34f
1:59pm 17 31 mph 1009.8mb 34f
1:33pm 17 32 mph 1009.1mb 34f
1:00pm 16 27 mph 1008.5mb 34f
12:12pm 17 25 mph 1008.1mb 34f
12:07pm 17 29 mph 1008.5mb 34f
12:04pm 17 29 mph 1008.5mb 34f
12:00pm 21 32 mph 1008.1mb 34f
11:36am 15 31 mph 1008.1mb 34f
11:32am 17 31 mph 1008.1mb 34f
11:26am 17 25 mph 1008.1mb 34f
11:00am 13 24 mph 1008.1mb 34f
10:48am 14 23 mph 1007.8mb 34f
10:35am 17 23 mph 1007.8mb 34f
10:16am 16 25 mph 1007.5mb 34f
10:10am 15 24 mph 1007.8mb 34f
10:05am 14 24 mph 1007.8mb 34f
10:03am 13 18 mph 1007.8mb 34f
10:00am 12 18 mph 1007.5mb 34f
9:26am 14 21 mph 1007.1mb 32f
9:24am 13 25 mph 1007.1mb 32f
9:21am 14 25 mph 1007.1mb 32f
9:19am 15 25 mph 1007.1mb 32f
9:14am 15 24 mph 1007.1mb 34f
9:09am 15 24 mph 1007.1mb 34f
9:02am 9 20 mph 1007.1mb 34f
9:01am 9 20 mph 1007.1mb 34f
9:00am 9 20 mph 1007.1mb 34f
8:59am 9 20 mph 1007.1mb 34f
8:55am 14 22 mph 1006.8mb 34f
8:53am 12 22 mph 1006.8mb 34f
8:52am 12 22 mph 1006.8mb 34f
8:39am 16 24 mph 1006.8mb 34f
8:36am 13 24 mph 1006.8mb 34f
8:33am 14 24 mph 1006.8mb 34f
8:28am 14 22 mph 1006.8mb 34f
8:24am 10 18 mph 1006.4mb 34f
8:10am 9 18 mph 1006.1mb 34f
8:00am 10 20 mph 1006.1mb 34f
7:53am 12 20 mph 1006.1mb 34f
7:47am 10 20 mph 1006.1mb 34f
7:24am 14 25 mph 1005.4mb 34f
7:23am 12 20 mph 1005.4mb 34f
7:18am 10 24 mph 1005.4mb 34f
7:17am 10 24 mph 1005.4mb 34f
7:11am 13 24 mph 1005.4mb 34f
7:00am 15 21 mph 1005.4mb 34f
6:31am 10 22 mph 1004.7mb 36f
6:00am 8 20 mph 1004.7mb 36f
5:55am 15 21 mph 1004.4mb 36f
5:00am 15 24 mph 1003.7mb 36f
4:03am 15 23 mph 1003.1mb 36f
4:00am 10 22 mph 1003.1mb 36f
3:53am 12 21 mph 1002.7mb 36f
3:49am 12 21 mph 1002.7mb 36f
3:48am 12 23 mph 1002.7mb 36f
3:24am 12 22 mph 1002.7mb 36f
3:09am 15 25 mph 1002.4mb 36f
3:00am 15 25 mph 1002.4mb 36f
2:52am 18 25 mph 1002.4mb 36f
2:51am 14 25 mph 1002.4mb 36f
2:35am 15 21 mph 1002mb 36f
2:34am 14 21 mph 1002mb 36f
2:27am 14 21 mph 1002mb 36f
2:26am 13 21 mph 1002mb 36f
2:21am 12 21 mph 1001.7mb 36f
2:18am 14 22 mph 1001.7mb 36f
2:05am 13 23 mph 1001.7mb 37f
2:03am 17 23 mph 1001.4mb 37f
2:02am 14 23 mph 1001.4mb 37f
2:00am 14 23 mph 1001.7mb 37f
1:49am 12 31 mph 1001.4mb 37f
1:25am 16 25 mph 1001mb 37f
1:24am 13 27 mph 1001mb 37f
1:23am 14 27 mph 1001mb 37f
1:21am 12 27 mph 1001mb 37f
1:18am 10 27 mph 1001mb 37f
1:16am 15 27 mph 1001mb 37f
1:00am 10
mph
1000.7mb 37f
12:00am 16 22 mph 999.7mb 37f
Mon 11/24 11:53pm 13 23 mph 999.7mb 37f
11:34pm 16 27 mph 999.3mb 37f
11:23pm 15 22 mph 999mb 39f
11:20pm 14 22 mph 999mb 39f
11:00pm 14 27 mph 998.6mb 37f
10:36pm 18 30 mph 998.3mb 39f
10:06pm 20 32 mph 997.6mb 39f
10:05pm 18 32 mph 997.6mb 39f
10:04pm 21 32 mph 997.6mb 39f
10:00pm 20 36 mph 997.3mb 39f
9:51pm 18 31 mph 997.3mb 39f
9:00pm 16 25 mph 996.3mb 41f
8:49pm 14 31 mph 996.3mb 41f
8:00pm 23 41 mph 995.3mb 43f
7:53pm 28 41 mph 994.6mb 43f
7:35pm 16 35 mph 994.6mb 43f
7:31pm 22 35 mph 994.2mb 43f
7:30pm 20 38 mph 994.2mb 43f
7:00pm 20 31 mph 993.2mb 45f
6:06pm 27 39 mph 991.2mb 46f
6:00pm 18 39 mph 990.9mb 46f
5:38pm 27 41 mph 989.8mb 48f
5:33pm 27 41 mph 989.8mb 48f
5:00pm 21 35 mph 987.8mb 54f
4:55pm 24 35 mph 987.8mb 54f
4:00pm 13 21 mph 986.5mb 54f
3:00pm 12
mph
985.8mb 52f
2:13pm 13 21 mph 985.4mb 52f
2:00pm 10 17 mph 984.8mb 52f
1:36pm 15 21 mph 984.8mb 54f
1:00pm 10 21 mph 984.8mb 54f
12:00pm 13 25 mph 985.1mb 54f
11:33am 16 25 mph 985.4mb 52f
11:27am 15 29 mph 985.4mb 52f
11:19am 18 29 mph 985.1mb 52f
11:12am 16 22 mph 985.4mb 52f
11:07am 15 21 mph 985.4mb 52f
11:03am 14 22 mph 985.4mb 52f
11:00am 12 22 mph 985.4mb 52f
10:59am 13 22 mph 985.4mb 52f
10:56am 17
mph
985.4mb 52f
10:50am 13 20 mph 985.4mb 52f
10:46am 10 20 mph 985.4mb 52f
10:13am 15 22 mph 985.4mb 54f
10:06am 16 25 mph 985.4mb 52f
10:00am 18 25 mph 985.4mb 52f
9:56am 15 23 mph 985.8mb 52f
9:55am 16 23 mph 985.8mb 52f
9:37am 14 21 mph 985.8mb 52f
9:00am 13 22 mph 985.8mb 50f
8:52am 13 22 mph 985.8mb 50f
8:32am 16 22 mph 985.4mb 50f
8:25am 16 25 mph 985.4mb 48f
8:22am 15 25 mph 985.4mb 48f
8:11am 16 23 mph 985.4mb 48f
8:00am 20 27 mph 985.4mb 48f
7:46am 16 27 mph 985.4mb 48f
7:29am 22 30 mph 985.4mb 48f
7:06am 18 28 mph 985.4mb 46f
7:00am 21 30 mph 985.4mb 46f
6:56am 21 30 mph 985.4mb 46f
6:30am 17 25 mph 985.8mb 46f
6:00am 18 27 mph 986.5mb 46f
5:55am 20 28 mph 986.5mb 46f
5:53am 18 28 mph 986.5mb 46f
5:39am 17 25 mph 986.8mb 46f
5:38am 18 25 mph 986.8mb 46f
5:35am 16 24 mph 986.8mb 45f
5:14am 17 35 mph 987.5mb 46f
5:04am 21 28 mph 987.8mb 45f
5:03am 20 28 mph 987.8mb 45f
5:02am 16 28 mph 987.8mb 45f
5:01am 16 28 mph 987.8mb 45f
5:00am 16 28 mph 987.8mb 45f
4:47am 20 28 mph 988.2mb 45f
4:39am 21 31 mph 988.5mb 45f
4:38am 18 31 mph 988.5mb 45f
4:33am 20 32 mph 988.5mb 45f
4:00am 17 30 mph 988.8mb 45f
3:37am 16 25 mph 989.5mb 45f
3:27am 18 25 mph 990.2mb 43f
3:00am 16 24 mph 990.9mb 43f
2:34am 12 20 mph 991.9mb 41f
2:33am 13 20 mph 991.9mb 41f
2:30am 12 21 mph 992.2mb 41f
2:27am 9 21 mph 992.2mb 41f
2:25am 12 21 mph 992.6mb 41f
2:21am 12 20 mph 992.2mb 41f
2:06am 12 22 mph 993.2mb 41f
2:00am 12 17 mph 993.6mb 41f
1:51am 10
mph
993.9mb 41f
1:27am 10 18 mph 995.3mb 41f
1:20am 9 20 mph 995.6mb 41f
1:00am 10 21 mph 996.3mb 41f
12:29am 12 18 mph 997.6mb 43f
12:00am 10 17 mph 998.6mb 43f
Sun 11/23 11:00pm 8 18 mph 1001.4mb 43f
10:00pm 8
mph
1003.4mb 43f
9:00pm 8
mph
1004.7mb 41f
8:06pm 9
mph
1006.1mb 41f
8:00pm 9
mph
1006.4mb 41f
7:34pm 9
mph
1006.8mb 41f
7:32pm 10
mph
1006.8mb 41f
7:31pm 9
mph
1006.8mb 41f
7:22pm 10
mph
1007.1mb 41f
7:18pm 10
mph
1007.1mb 41f
7:06pm 9
mph
1007.5mb 41f
7:05pm 8
mph
1007.5mb 41f
7:00pm 9
mph
1007.5mb 41f
6:59pm 12
mph
1007.8mb 41f
6:55pm 10
mph
1007.8mb 41f
6:49pm 7
mph
1008.1mb 41f
6:00pm 14
mph
1008.8mb 41f
5:57pm 10
mph
1008.8mb 41f
5:56pm 9
mph
1008.8mb 41f
5:24pm 10
mph
1008.8mb 41f
5:00pm 9
mph
1009.1mb 41f
4:18pm 7
mph
1009.5mb 41f
4:00pm 8
mph
1009.5mb 41f
3:59pm 8
mph
1009.5mb 41f
3:52pm 7
mph
1009.8mb 41f
3:05pm 7
mph
1009.8mb 41f
3:00pm 9
mph
1009.8mb 41f
2:31pm 9
mph
1010.5mb 41f
2:00pm 7
mph
1010.8mb 41f
1:56pm 8
mph
1010.5mb 43f
1:53pm 9
mph
1010.5mb 41f
1:51pm 10
mph
1010.5mb 41f
1:49pm 10
mph
1010.5mb 41f
1:46pm 10
mph
1010.5mb 41f
1:34pm 12 17 mph 1010.5mb 41f
1:23pm 15
mph
1010.5mb 43f
1:00pm 9
mph
1010.8mb 43f
12:52pm 9
mph
1011.2mb 43f
12:00pm 10
mph
1011.9mb 43f
11:13am 13 18 mph 1012.9mb 41f
11:00am 10
mph
1012.9mb 41f
10:21am 13
mph
1013.2mb 41f
10:14am 10
mph
1013.2mb 41f
10:00am 10
mph
1013.5mb 39f
9:39am 7
mph
1013.9mb 39f
9:00am 7
mph
1013.9mb 39f
8:00am 6
mph
1013.9mb 37f
7:00am 5
mph
1013.2mb 37f
6:00am 6
mph
1013.2mb 36f
5:20am 5
mph
1013.2mb 36f
5:00am 5
mph
1012.9mb 37f
4:28am 3
mph
1012.9mb 36f
4:26am 5
mph
1012.9mb 36f
4:00am 5
mph
1012.5mb 37f
3:00am 6
mph
1011.9mb 37f
2:00am 6
mph
1012.2mb 36f
1:04am 7
mph
1011.9mb 36f
1:00am 7
mph
1011.9mb 36f
12:49am 6
mph
1011.5mb 36f
12:00am 7
mph
1011.5mb 36f
Sat 11/22 11:52pm 6
mph
1011.5mb 36f
11:36pm 6
mph
1011.5mb 36f
11:00pm 7
mph
1011.5mb 36f
10:13pm 7
mph
1011.2mb 36f
10:00pm 6
mph
1011.2mb 36f
9:56pm 6
mph
1011.2mb 36f
9:18pm 6
mph
1010.8mb 34f
9:00pm 7
mph
1011.2mb 34f
8:17pm 7
mph
1011.2mb 34f
8:00pm 5
mph
1010.8mb 34f
7:09pm 7
mph
1011.2mb 34f
7:00pm 6
mph
1011.2mb 34f
6:00pm 9
mph
1010.8mb 34f
5:00pm 7
mph
1010.8mb 34f
4:33pm 7
mph
1010.8mb 34f
4:27pm 7
mph
1010.8mb 34f
4:16pm 8
mph
1010.8mb 34f
4:15pm 8
mph
1010.8mb 34f
4:11pm 8
mph
1010.8mb 34f
4:00pm 7
mph
1010.8mb 34f
3:52pm 7
mph
1010.8mb 34f
3:28pm 7
mph
1010.8mb 34f
3:19pm 7
mph
1010.8mb 34f
3:16pm 7
mph
1010.8mb 34f
3:00pm 6
mph
1010.8mb 34f
2:05pm 7
mph
1010.8mb 32f
2:02pm 7
mph
1010.8mb 32f
2:00pm 7
mph
1010.8mb 32f
1:53pm 7
mph
1010.8mb 32f
1:47pm 6
mph
1010.8mb 32f
1:36pm 7
mph
1010.5mb 32f
1:30pm 7
mph
1010.8mb 32f
1:00pm 7
mph
1011.5mb 32f
12:47pm 7
mph
1011.5mb 32f
12:38pm 7
mph
1011.5mb 32f
12:00pm 7
mph
1011.9mb 32f
11:36am 9
mph
1012.2mb 32f
11:35am 8
mph
1012.2mb 32f
11:27am 7
mph
1012.5mb 32f
11:22am 7
mph
1012.5mb 32f
11:12am 8
mph
1012.2mb 32f
11:06am 8
mph
1012.5mb 32f
11:03am 7
mph
1012.5mb 32f
11:02am 8
mph
1012.5mb 32f
11:00am 8
mph
1012.5mb 32f
10:56am 7
mph
1012.5mb 32f
10:54am 7
mph
1012.9mb 32f
10:53am 7
mph
1012.9mb 32f
10:51am 7
mph
1012.9mb 32f
10:37am 8
mph
1013.2mb 32f
10:35am 8
mph
1013.2mb 32f
10:32am 6
mph
1013.5mb 32f
10:23am 6
mph
1013.5mb 32f
10:00am 8
mph
1013.5mb 30f
9:49am 7
mph
1013.9mb 30f
9:16am 10
mph
1014.2mb 30f
9:00am 10
mph
1014.6mb 30f
8:39am 10
mph
1014.9mb 28f
8:23am 12
mph
1015.2mb 28f
8:08am 10
mph
1015.9mb 28f
8:00am 12
mph
1015.9mb 28f